Theta_e
357 361 367 367 367 368 366 364 363 360 359 360 361 360 361 363 363 364 364 364 365 365 363 361 361 362 362 362 361 362 360 359 357 354 353 352 350 349 348 347 344 337 342
358 359 366 367 367 367 367 365 363 362 361 361 361 360 361 363 364 364 364 364 366 364 363 362 361 361 361 361 362 360 359 358 358 355 354 352 351 348 346 346 344 339 340
357 358 359 367 367 367 367 365 363 361 361 362 362 361 361 363 364 364 364 364 366 364 363 362 361 361 360 361 361 361 359 357 358 356 358 346 345 348 346 346 344 342 340
358 359 357 366 366 366 365 364 362 362 361 362 363 362 361 363 363 363 364 364 365 364 362 361 361 361 361 361 361 360 360 360 357 357 354 349 344 348 345 345 343 341 340
357 360 361 365 365 364 364 364 362 362 362 363 363 362 362 363 364 364 364 364 364 362 362 361 362 362 361 359 359 359 360 361 361 356 354 347 342 346 346 343 340 341 339
360 359 362 365 364 364 363 363 363 362 363 363 363 363 363 363 364 364 364 363 363 363 362 362 362 362 360 359 358 357 358 357 357 348 354 349 342 346 344 343 341 340 339
360 354 357 363 363 363 363 363 364 363 363 363 363 363 363 363 363 363 364 362 363 362 363 363 362 362 360 358 356 354 354 355 347 341 349 345 343 347 344 342 341 340 339
358 357 356 362 362 362 362 362 363 363 364 363 363 363 363 363 363 363 363 363 362 361 361 362 362 361 359 357 354 353 352 353 343 341 348 344 347 347 344 342 340 339 339
362 360 358 357 360 362 361 362 362 363 363 363 363 363 363 363 362 362 363 363 362 361 360 361 360 360 358 355 353 352 351 353 343 338 347 344 349 347 344 342 340 339 339
355 359 361 361 356 356 356 361 361 361 362 363 363 363 363 363 363 362 361 361 362 361 361 359 358 357 355 353 352 351 351 352 340 334 347 345 350 347 345 342 340 339 339
337 341 353 360 361 359 356 357 360 359 360 360 361 362 360 357 358 356 357 358 362 362 360 359 357 356 354 353 352 352 352 339 334 345 347 351 351 347 345 342 341 339 339
322 326 339 349 350 352 361 358 357 355 354 354 353 357 357 355 353 354 356 358 361 361 361 359 358 356 353 345 343 350 342 336 333 350 346 352 351 348 345 343 341 340 339
322 325 325 338 339 341 342 360 363 361 358 355 354 354 356 352 351 350 352 353 357 360 354 355 354 351 347 344 341 339 337 336 333 349 349 352 351 349 346 343 342 341 340
324 329 329 334 340 345 340 344 348 351 358 359 357 359 358 357 356 351 348 352 353 353 352 350 348 348 346 345 343 341 341 337 334 349 349 352 351 350 346 344 342 341 340
326 330 331 337 345 344 346 343 342 350 349 350 359 360 357 356 353 356 352 353 352 351 352 349 348 348 347 345 344 345 341 339 337 350 349 353 350 350 347 345 343 342 341
334 333 336 336 343 341 344 347 342 342 356 349 349 360 361 359 359 351 358 354 352 349 348 349 345 345 347 346 347 347 344 340 339 345 349 349 350 349 349 345 344 342 342
333 338 338 338 339 343 344 345 343 340 339 350 347 353 360 362 356 359 355 353 352 353 354 346 347 346 347 348 348 346 343 341 339 349 348 348 348 350 348 347 344 342 342
332 335 337 332 334 337 341 345 343 340 338 338 346 344 359 360 362 359 356 354 353 354 350 351 348 343 345 346 344 343 342 342 340 343 350 348 346 345 348 347 346 343 343
331 332 335 337 333 335 338 338 343 343 340 337 340 343 352 360 361 361 356 355 362 357 353 349 348 348 343 345 344 345 344 344 342 340 348 349 347 346 344 347 346 344 342
330 333 335 334 334 337 335 333 331 335 341 338 336 337 342 351 359 360 357 357 357 356 352 351 348 348 348 346 340 339 342 343 349 348 349 351 348 346 343 342 340 340 337
329 331 334 332 335 334 328 325 323 323 324 331 336 338 344 345 355 356 357 356 355 353 352 353 350 344 346 347 344 339 343 347 347 348 351 347 348 344 340 337 336 331 325
329 330 333 333 335 332 329 329 333 328 326 328 338 340 348 348 349 354 352 352 354 352 353 352 349 345 347 346 340 335 332 338 341 336 344 343 339 338 336 333 327 319 317
326 328 328 329 333 335 334 329 329 327 327 324 322 326 335 340 347 345 352 349 349 353 351 351 350 346 340 348 343 338 330 328 332 326 320 330 328 321 319 319 318 317 316
323 325 329 330 331 333 336 328 328 324 321 324 324 323 328 334 339 344 349 352 353 353 348 349 351 347 343 339 341 343 341 337 327 318 317 314 316 315 316 317 317 317 319
323 322 328 331 333 335 336 335 325 323 322 324 324 326 326 328 332 339 336 328 323 349 349 348 350 349 347 342 340 340 338 338 337 325 314 311 312 314 315 318 316 316 319
319 321 320 323 329 334 333 333 330 326 324 322 323 323 325 326 330 340 331 322 325 330 343 346 350 347 346 346 344 341 339 335 332 330 317 313 308 310 314 315 316 316 317
Wind_Speed
13 13 15 15 15 13 14 14 14 12 11 11 11 11 10 9 10 10 11 10 10 9 8 9 9 10 10 11 12 11 11 10 12 15 16 17 17 17 17 18 17 14 16
17 13 14 15 14 13 14 14 14 13 12 12 11 10 10 9 9 9 9 8 9 8 8 8 9 9 9 9 9 9 8 7 10 13 16 17 16 16 16 17 16 14 16
18 12 13 14 14 13 14 14 14 13 12 11 12 10 9 9 9 8 9 8 8 8 8 8 8 8 8 7 7 6 3 5 6 11 11 11 10 16 14 14 14 15 15
17 12 12 13 13 13 12 13 14 13 12 11 11 11 10 8 9 8 7 8 7 8 8 8 7 7 6 5 5 3 3 2 4 7 5 7 11 15 13 13 13 13 14
14 16 13 13 12 12 12 12 13 12 12 12 11 11 9 9 9 8 7 7 8 8 8 8 7 6 6 4 3 2 5 5 5 5 1 7 8 12 12 11 13 14 14
21 18 15 13 12 12 12 12 12 12 12 12 12 11 11 10 8 7 8 8 7 8 7 7 7 6 5 4 3 3 7 7 7 7 4 11 10 14 12 13 13 12 12
20 17 15 12 11 11 12 12 10 11 12 12 12 11 10 10 10 9 8 8 8 7 7 7 6 6 6 4 3 4 10 9 7 8 10 10 13 14 13 12 12 12 11
20 17 14 12 11 11 11 11 10 9 9 10 11 11 11 10 10 10 8 8 8 8 8 8 7 6 6 5 5 6 10 12 9 5 13 9 18 17 14 12 11 11 10
19 17 14 13 12 13 11 11 10 9 9 9 9 9 9 10 10 10 10 9 8 8 8 8 7 7 7 6 7 7 10 13 8 3 12 10 18 19 16 13 11 10 10
18 20 17 14 14 12 13 15 15 12 10 9 9 9 9 9 10 10 10 10 10 10 9 8 8 8 7 7 8 9 10 15 9 9 9 10 19 20 18 14 11 10 9
4 5 14 17 14 14 13 11 11 13 11 9 9 10 9 7 10 11 11 12 13 11 10 10 9 8 8 9 10 11 11 6 11 5 8 22 19 20 18 15 12 11 10
13 10 12 8 1 2 13 12 10 11 9 9 9 9 7 8 8 13 15 15 14 13 12 11 10 10 8 6 7 12 6 9 10 8 8 24 21 21 19 16 14 12 10
11 11 11 9 9 12 9 7 7 7 7 8 12 11 10 7 7 7 5 8 7 10 6 8 7 6 9 8 9 8 10 11 8 8 15 24 22 22 20 17 14 12 10
12 12 11 13 10 8 7 7 6 3 7 7 10 11 6 6 4 6 5 9 9 8 9 8 7 9 11 10 12 7 9 5 3 5 14 22 21 21 21 18 15 13 11
8 11 11 11 8 7 6 6 7 8 4 5 7 12 10 7 6 5 4 4 9 9 10 9 9 9 11 11 10 5 5 5 4 7 7 20 20 19 20 19 16 14 12
9 8 10 9 7 7 6 7 7 8 4 7 5 7 12 8 5 6 3 4 5 3 7 11 11 10 9 11 7 5 6 5 5 8 8 10 16 17 18 18 16 14 12
7 9 8 7 10 9 8 7 6 7 9 6 8 6 12 10 8 6 6 5 5 5 6 5 6 8 5 5 4 6 7 6 5 7 11 10 11 16 17 17 15 13 13
9 7 7 8 9 9 7 6 5 7 8 9 7 9 8 13 10 9 7 5 7 5 6 5 4 4 5 5 5 6 5 5 7 6 11 11 10 9 13 16 15 14 13
9 5 4 5 7 9 7 7 6 7 7 9 9 8 7 13 14 8 8 8 4 4 5 5 4 4 4 5 5 5 5 5 6 8 11 14 13 11 8 14 14 12 15
7 4 4 4 6 7 5 6 7 8 5 6 9 9 10 6 13 12 11 11 8 5 7 5 2 5 4 4 7 8 6 5 3 6 11 10 10 10 10 10 6 8 14
7 2 4 5 6 6 5 7 7 7 9 10 9 11 10 10 1 11 11 11 11 7 10 7 4 5 10 5 2 4 2 6 7 5 5 5 7 8 11 9 7 6 6
7 6 1 4 6 7 5 6 4 6 8 9 8 10 13 8 8 7 15 10 7 7 10 10 8 4 4 4 3 2 4 1 6 7 5 6 9 7 9 9 10 9 7
7 8 7 5 1 4 6 6 6 7 6 7 10 10 10 16 12 13 9 9 14 11 7 10 8 8 6 2 4 3 2 2 4 6 10 6 9 8 8 8 9 7 6
9 7 7 7 5 1 4 6 8 8 9 7 8 10 12 13 14 13 14 9 13 8 9 8 8 8 6 7 3 4 3 5 2 1 6 8 8 8 8 6 6 4 5
10 10 6 5 3 2 2 3 5 8 8 9 9 12 14 14 12 14 6 2 11 10 10 10 8 10 7 7 7 3 6 6 7 3 3 3 5 4 5 4 6 1 4
7 4 10 9 4 3 2 3 6 7 9 9 10 11 11 10 11 11 4 6 5 14 16 12 12 11 10 8 7 6 7 4 6 5 4 2 3 1 3 5 3 4 4
Wind_Direction
110 113 104 100 103 113 125 125 125 125 124 121 118 115 104 95 93 93 95 98 102 106 104 101 97 87 79 76 76 77 81 90 96 96 92 84 75 67 58 57 62 64 62
115 116 105 104 103 113 124 127 125 127 129 131 127 124 119 116 113 109 103 101 110 112 110 109 106 99 94 89 88 89 99 112 111 110 103 88 83 78 73 69 67 67 63
108 124 108 104 106 114 125 128 127 130 132 134 133 133 132 131 129 120 114 114 116 118 117 115 113 108 104 100 100 104 130 144 130 138 152 95 92 86 82 77 72 71 66
118 118 107 96 102 109 121 126 129 132 137 138 138 142 143 140 139 134 124 127 131 132 131 129 125 120 118 116 119 127 227 210 196 189 210 108 99 93 87 81 81 85 76
124 99 103 93 94 102 114 123 129 135 142 146 147 148 150 150 147 143 134 135 147 149 151 148 143 137 136 142 148 201 259 282 285 292 169 135 107 103 102 105 90 78 73
116 109 103 103 104 109 114 123 132 140 147 152 155 156 157 160 157 153 145 147 160 163 170 168 156 158 156 163 184 250 275 280 296 258 122 106 108 115 107 99 96 90 84
106 112 108 109 114 115 121 128 135 142 149 156 160 161 165 166 163 165 166 166 170 179 182 184 174 176 171 192 209 258 282 286 286 288 119 120 117 121 118 113 106 100 94
108 113 125 126 128 128 128 132 137 142 148 157 166 167 168 173 170 175 178 182 184 185 187 191 190 192 193 207 239 257 275 288 297 322 125 129 128 133 129 124 118 113 107
126 133 140 147 148 145 144 145 146 152 156 161 169 172 174 178 180 182 184 187 192 192 194 191 195 204 212 216 238 257 273 281 289 274 131 134 143 139 137 136 133 126 118
153 140 146 151 164 166 167 163 158 159 166 168 173 179 178 184 190 194 189 196 194 193 195 194 197 206 213 224 235 250 265 283 272 256 139 140 147 144 141 145 144 137 131
116 97 135 164 163 184 151 161 161 163 166 178 188 189 182 206 195 208 210 207 194 195 196 195 201 205 217 231 234 237 246 260 267 131 126 147 154 149 145 152 151 148 145
36 43 60 58 328 38 150 156 177 174 178 181 190 189 210 218 226 201 198 204 196 197 197 199 203 205 216 239 220 226 234 246 255 141 140 155 157 153 149 157 159 160 157
33 26 34 56 34 7 8 182 193 175 178 189 192 187 192 217 226 235 201 183 187 196 209 205 208 220 223 225 246 189 214 231 243 129 156 158 156 156 152 162 167 167 166
23 27 359 25 19 14 353 326 345 294 181 191 192 183 193 185 250 230 201 178 190 194 206 217 215 214 221 234 251 213 222 227 350 124 161 161 159 157 156 165 173 173 173
27 21 0 3 2 352 337 335 336 318 313 304 178 183 188 195 180 260 238 217 187 201 189 205 219 218 222 228 238 248 290 307 273 133 155 166 165 159 161 166 176 177 176
49 25 20 346 326 355 339 333 321 307 288 299 281 182 187 187 204 178 238 262 287 245 215 195 210 220 204 218 211 209 252 237 248 152 148 165 165 163 165 170 178 181 176
48 45 16 329 16 3 334 323 318 308 307 247 277 272 181 183 168 222 208 229 249 276 279 287 208 204 194 212 217 207 223 232 241 135 147 161 162 169 170 171 180 181 181
55 36 43 18 8 351 315 298 290 290 293 296 270 271 190 184 188 198 206 207 221 231 249 266 266 251 190 187 200 231 198 222 214 184 161 158 165 169 177 173 176 186 176
85 42 39 50 13 336 333 327 292 273 277 279 282 284 264 184 190 196 195 214 202 234 246 237 257 230 234 194 213 215 201 204 224 204 162 163 164 163 165 176 175 186 159
93 68 19 33 15 335 349 330 351 338 302 273 280 273 278 270 197 189 206 198 191 212 240 230 175 281 236 217 216 233 200 195 72 7 145 148 150 152 154 155 142 145 143
115 66 29 10 21 345 6 347 352 348 322 313 301 284 268 262 321 218 218 202 180 196 228 223 181 205 256 222 172 244 213 79 64 54 80 99 118 111 127 127 124 117 122
156 150 126 19 6 339 3 322 326 331 306 305 295 301 298 250 256 212 202 230 193 194 233 221 215 209 245 213 224 201 171 88 93 34 10 77 84 107 119 116 118 114 118
182 164 162 153 31 321 6 334 334 326 316 336 334 322 337 336 294 269 211 181 219 215 221 223 217 209 217 203 136 161 174 265 88 29 21 45 76 79 71 88 104 119 129
191 176 174 165 161 147 14 337 339 312 320 332 315 319 320 315 313 306 298 214 195 205 219 233 218 212 205 228 234 175 187 138 140 86 45 7 63 69 82 79 100 125 107
183 196 156 123 67 70 69 316 316 315 318 310 316 310 314 303 296 293 190 157 15 272 221 223 213 203 199 217 221 213 213 195 173 166 143 131 41 53 91 134 129 180 134
141 44 22 32 324 17 17 320 309 302 309 310 306 298 290 291 298 311 168 137 148 276 261 219 212 206 202 205 207 218 216 201 192 141 124 136 120 108 137 161 195 169 181